Location: Boiro
(42.6475°N, 8.8834°W)
Time: 18:37:38
(UTC+01:00)

A-11 Canister half - Pass Details

Date: 30 November 2021
Orbit: 1516 x 1684 km, 47.2° (Epoch: 26 January)

Event Time Altitude Azimuth Distance (km) Brightness Sun altitude
Rises 13:51:26 0° 288° (WNW) 4,882 11.5 25.3°
Reaches altitude 10° 13:54:34 10° 290° (WNW) 3,911 11.1 25.2°
Maximum altitude 14:04:42 79° 17° (NNE) 1,710 9.5 25.0°
Drops below altitude 10° 14:14:55 10° 105° (ESE) 3,940 11.3 24.6°
Sets 14:18:04 0° 107° (ESE) 4,920 11.7 24.4°
